FREGAT DEB, 46260

Orbit data source: Space-Track

FREGAT DEB, 46260 is space debris in LEO originally from a launch on Mon, 18 Jul 2011 UTC launched from the Tyuratam Missile And Space Complex (TTMTR). Debris objects in space refer to the collection of defunct objects orbiting the Earth. Examples of debris include non-operational satellites, rocket bodies, and fragments generated from explosions, collisions, or faulty payload assembly.

Loading next visibility...
Identifier
46260, 2011-037KW
Orbit
LEO
Country
Flag of CISCIS
Related business
Manufacturer
Lavochkin
Mission
Spacecraft
Bus & Motor
Unknown
Mass
Unknown
Launch date (UTC)
2011-07-18 (14 years ago)
Launch vehicle
Unknown
Launch site
Tyuratam Missile And Space Complex (TTMTR)
Object type
Payload
Rocket body
Debris
Shape & HBR
Unknown shape, 0.2 m
Radar Cross Section
Small (<0.1 m²)

Expand to show TLE details & history
Last TLE update: 14 hours ago

TLE from 14 hours ago
0 FREGAT DEB
1 46260U 11037KW  25291.20480210  .00139542  00000-0  51023+0 0  9990
2 46260  51.2658 257.1233 1825379 358.7790   0.8851 10.45912831 26200
Epoch: 2025-10-18T04:54Z
TLE epoch observation values (Epoch: 2025-10-18T04:54:54.901Z)
Latitude
-0.00005°
Longitude
156.45534°
Altitude
842.784 km
Speed
8.081 km/s
True Right ascension
17h 08m 29s
True Declination
0° 00' 00"
Sunlit
Object was in daylight at epoch
Visualization orbit readout
Latitude
Unknown
Longitude
Unknown
Altitude
Unknown
Speed
Unknown
Apparent Right ascension
Unknown
Apparent Declination
Unknown
Sunlit
N/A
Visualization observer readout
Local Sidereal Time
13:21:28
Azimuth
Unknown
Elevation
Unknown
Doppler factor
Unknown
Orbital elements
Apogee altitude
4,066.885 km
Perigee altitude
842.274 km
Semi-major axis
8,832.717 km
Eccentricity
0.18254
Inclination
51.2658°
RAAN
257.1233°
Arg. of periapsis
358.779°
True anomaly
1.30223°
Mean anomaly
0.8851°
Eccentric anomaly
1.08273°
Mean motion
2.61458 °/min
Orbital period
137.69 mins
BSTAR
0.51023
Loading maneuver chart data...
Computing Atmospheric mass density...
Loading historical data...
Loading historical data...
Loading historical data...
Loading historical data...
Loading historical data...
Loading historical data...
Loading historical data...

Documentation

Showing up to 5 results
|